Weather History for Melbourne, FL

Change the Weather History Date:

Saturday, November 24, 2012

  Actual Average Record
Temperature  
Mean Temperature 60 °F 67 °F  
Max Temperature 74 °F 77 °F 88 °F (1979)
Min Temperature 45 °F 57 °F 31 °F (1970)
Degree Days  
Heating Degree Days 5 2  
Month to date heating degree days 44 26  
Since 1 July heating degree days 63 30  
Cooling Degree Days 0 4  
Month to date cooling degree days 57 134  
Year to date cooling degree days 3388 3171  
Growing Degree Days 9 (Base 50)    
Moisture  
Dew Point 52 °F    
Average Humidity 79    
Maximum Humidity 100    
Minimum Humidity 57    
Precipitation  
Precipitation 0.00 in 0.08 in 2.70 in (1953)
Month to date precipitation 0.66 2.37  
Year to date precipitation 37.57 48.92  
Sea Level Pressure  
Sea Level Pressure 30.06 in    
Wind  
Wind Speed 6 mph (NW)    
Max Wind Speed 15 mph    
Max Gust Speed 18 mph    
Visibility 8 miles    
Events      
T = Trace of Precipitation, MM = Missing Value Source: NWS Daily Summary

Daily Weather History Graph

Daily Weather History Graph

Search for Another Location

Airport:

Trip Planner

Search our weather history database for the weather conditions in past years. The results will help you decide how hot, cold, wet, or windy it might be!

Date:

Astronomy

Nov. 24, 2012 Rise Set
Actual Time 6:51 AM EST 5:26 PM EST
Civil Twilight 6:26 AM EST 5:52 PM EST
Nautical Twilight 5:57 AM EST 6:20 PM EST
Astronomical Twilight 5:29 AM EST 6:49 PM EST
Moon 2:58 PM EST (11/24) 3:21 AM EST (11/24)
Length of Visible Light 11h 25m
Length of Day
10h 35m
Waxing Gibbous, 87% of the Moon is Illuminated
Nov 24
Waxing Gibbous
Nov 28
Full
Dec 6
Last Quarter
Dec 13
New
Dec 20
First Quarter

Hourly Weather History & Observations

Time (EST) Temp. Windchill Dew Point Humidity Pressure Visibility Wind Dir Wind Speed Gust Speed Precip Events Conditions
12:53 AM 48.0 °F - 44.1 °F 86% 30.09 in 10.0 mi WSW 5.8 mph - N/A   Clear
1:53 AM 48.0 °F - 43.0 °F 83% 30.08 in 10.0 mi West 3.5 mph - N/A   Clear
2:53 AM 48.0 °F - 44.1 °F 86% 30.07 in 10.0 mi West 3.5 mph - N/A   Clear
3:53 AM 48.9 °F - 46.0 °F 90% 30.06 in 10.0 mi West 4.6 mph - N/A   Clear
4:53 AM 46.0 °F 43.9 °F 44.1 °F 93% 30.06 in 10.0 mi West 4.6 mph - N/A   Clear
5:53 AM 48.0 °F - 46.0 °F 93% 30.06 in 8.0 mi WSW 4.6 mph - N/A   Clear
6:53 AM 50.0 °F - 48.0 °F 93% 30.08 in 4.0 mi West 6.9 mph - N/A   Clear
7:53 AM 52.0 °F - 51.1 °F 97% 30.09 in 4.0 mi West 5.8 mph - N/A   Clear
8:53 AM 59.0 °F - 55.9 °F 90% 30.10 in 5.0 mi West 6.9 mph - N/A   Clear
9:53 AM 64.9 °F - 57.0 °F 75% 30.10 in 10.0 mi WNW 10.4 mph - N/A   Clear
10:53 AM 69.1 °F - 55.9 °F 63% 30.09 in 10.0 mi NW 12.7 mph - N/A   Clear
11:53 AM 72.0 °F - 55.9 °F 57% 30.06 in 10.0 mi WNW 10.4 mph - N/A   Clear
12:53 PM 72.0 °F - 55.9 °F 57% 30.03 in 10.0 mi NE 8.1 mph - N/A   Partly Cloudy
1:53 PM 71.1 °F - 55.9 °F 59% 30.01 in 10.0 mi NE 10.4 mph - N/A   Clear
2:53 PM 68.0 °F - 57.0 °F 68% 30.00 in 9.0 mi ENE 9.2 mph - N/A   Clear
3:53 PM 66.9 °F - 57.0 °F 70% 30.00 in 9.0 mi NNE 8.1 mph - N/A   Clear
4:53 PM 64.0 °F - 55.0 °F 73% 30.01 in 10.0 mi NNE 6.9 mph - N/A   Clear
5:53 PM 61.0 °F - 55.0 °F 81% 30.02 in 10.0 mi NNE 3.5 mph - N/A   Clear
6:53 PM 59.0 °F - 55.0 °F 87% 30.03 in 9.0 mi NNE 5.8 mph - N/A   Clear
7:53 PM 59.0 °F - 55.9 °F 90% 30.05 in 9.0 mi North 4.6 mph - N/A   Clear
8:53 PM 55.9 °F - 53.1 °F 90% 30.07 in 7.0 mi NNW 3.5 mph - N/A   Clear
9:53 PM 54.0 °F - 53.1 °F 97% 30.08 in 8.0 mi NW 4.6 mph - N/A   Clear
10:53 PM 52.0 °F - 51.1 °F 97% 30.09 in 6.0 mi West 4.6 mph - N/A   Clear
11:53 PM 50.0 °F - 48.9 °F 96% 30.09 in 5.0 mi WNW 5.8 mph - N/A   Clear